CAPE
0 0 0 0 0 0 29 77 69 62 58 34 41 90 75 45 25 42 175 588 514 373 630 1365 1633 2466 2883 3740 4310 4436 3615 4760
0 0 0 0 0 0 13 104 88 78 79 61 71 37 8 40 14 22 52 473 628 459 528 1037 1137 1800 2693 3396 4113 3847 4038 4279
0 0 0 0 0 0 4 44 69 85 85 69 130 44 14 8 12 38 58 326 684 604 553 733 872 1417 2009 2645 3579 3838 3938 3937
0 0 0 0 0 0 23 45 28 120 81 28 22 21 28 12 5 6 49 197 582 724 636 740 1110 1054 1299 1635 1915 2942 3573 4228
0 0 0 0 0 0 0 4 138 84 7 52 47 38 81 63 10 43 69 96 480 703 862 1022 999 1360 982 1533 1299 1777 3082 3239
0 0 0 0 0 0 0 0 3 12 50 97 78 37 13 7 0 22 88 424 448 887 1362 1594 1790 1988 1748 1525 1133 1526 2113 2428
0 1 9 2 0 0 0 0 0 0 46 51 168 105 43 21 3 0 13 626 923 1210 2428 2792 2693 2774 2574 2070 2250 1988 2876 2907
1 0 0 2 4 1 0 0 0 0 0 28 44 102 64 2 6 0 0 49 1021 1389 1749 2932 3147 3510 3239 3038 3053 2867 3675 3580
85 40 67 77 0 0 2 2 0 0 0 0 23 89 124 23 4 8 26 87 857 1352 1818 2549 2382 3453 3589 3770 3369 3641 4179 4500
91 320 193 0 18 35 28 21 17 10 1 0 16 55 32 22 2 117 286 211 435 1160 1896 2826 2354 2437 3151 3215 4225 4449 4621 4545
357 414 243 138 329 416 370 62 12 35 6 0 0 0 10 3 0 0 106 175 624 1402 1910 3405 2974 3589 3800 3319 3849 3811 3845 4229
495 298 382 287 454 502 363 149 7 26 33 2 5 29 11 15 40 420 494 156 1158 1656 2153 2699 3267 2756 3159 2927 3190 3384 3607 3637
183 348 266 803 431 570 329 357 1104 837 552 223 21 64 225 182 132 531 615 1345 1880 2111 2970 3269 3167 2584 3278 3055 2813 2740 2939 3027
232 217 254 674 648 611 1205 1033 1090 1057 880 927 90 92 693 725 822 935 1218 1637 1759 2364 2710 2618 2911 3088 3299 3451 3609 3832 3647 3344
242 529 1269 917 791 908 905 1046 1033 1055 993 843 610 932 1103 1363 1703 1789 1750 1830 1731 1727 2590 2431 3105 3286 3675 4382 4112 3879 3706 3494
1086 925 794 910 831 926 1068 1047 1003 1098 1134 1137 1166 1266 1415 1558 1409 1256 1223 1696 1531 1751 2361 2769 3159 2903 3590 3411 3365 3356 2908 2548
1159 868 831 677 699 769 1002 1049 1048 1358 1564 1308 1482 1481 1516 1617 1526 1336 1362 1832 1960 1903 2183 2420 2677 2909 2583 2885 3062 2758 2934 2574
600 798 703 184 118 343 399 483 586 808 932 1188 1385 1403 1648 1561 1436 1393 1396 1541 2079 1920 2268 2558 2644 2649 2616 2567 2692 2441 2324 2078
323 314 48 0 32 99 61 16 2 25 73 104 94 266 282 447 668 850 1522 1514 1664 1885 2234 2516 2576 2651 2352 2501 2518 2442 1893 1851
CIN
0 0 0 0 0 0 0 0 0 0 0 -5 -4 -1 0 0 0 0 -2 -9 -33 -77 -113 -123 -120 -76 -40 0 0 0 0 0
0 0 0 0 0 0 0 0 0 0 0 0 0 -7 -2 -1 0 -2 -1 -4 -16 -48 -101 -111 -145 -108 -59 -17 -2 0 0 0
0 0 0 0 0 0 0 0 0 0 0 -2 -3 0 -2 -1 0 -1 -1 -2 -11 -40 -77 -98 -132 -119 -90 -63 -22 -11 0 0
0 0 0 0 0 0 0 0 0 0 0 -22 -4 -2 -2 0 -5 -3 0 -2 -13 -13 -41 -86 -99 -130 -110 -85 -90 -64 -8 0
0 0 0 0 0 0 0 0 0 0 0 -2 -8 0 -1 -1 -4 -9 0 0 -6 -14 -19 -59 -95 -103 -111 -70 -70 -70 -34 -23
0 0 0 0 0 0 0 0 0 0 0 -1 0 0 -2 -5 0 -4 -1 -19 -9 -13 -15 -35 -66 -96 -105 -72 -63 -59 -63 -54
0 0 0 0 0 0 0 0 0 0 0 0 0 -1 -2 -1 -19 0 -4 -9 -26 -25 -17 -56 -53 -78 -89 -61 -35 -41 -24 -35
0 0 0 0 0 0 0 0 0 0 0 0 -1 0 -1 -3 -41 0 0 0 -25 -40 -46 -54 -59 -61 -73 -62 -23 -26 -2 -24
-9 -11 0 0 0 0 0 0 0 0 0 0 -1 0 0 -1 0 -2 -31 -2 -14 -40 -59 -62 -93 -84 -60 -59 -35 -27 -17 -2
-10 0 0 0 -1 0 0 0 0 0 -1 0 0 -1 -1 -2 -12 -28 -1 0 -7 -30 -68 -80 -86 -91 -64 -98 -51 -33 -29 -13
0 -1 -53 -54 -12 -4 -7 -3 0 -1 0 0 0 0 -3 0 0 0 -16 -1 -14 -45 -61 -73 -86 -82 -85 -106 -81 -74 -75 -34
0 0 0 -1 -11 -22 -21 -2 -8 -3 -1 0 0 0 0 -2 -6 -13 -18 -10 -23 -61 -78 -120 -101 -154 -127 -141 -137 -129 -108 -84
-1 0 -1 -19 -13 -26 0 -3 -47 -24 -22 -4 0 0 -7 -7 -4 -27 -29 -29 -58 -70 -120 -151 -112 -147 -133 -147 -178 -160 -126 -114
0 0 0 -44 -18 0 -49 -47 -32 -31 -22 -18 -3 0 -40 -46 -47 -49 -43 -78 -121 -147 -172 -183 -153 -156 -123 -85 -73 -52 -50 -60
0 -2 -51 -91 -97 -68 -61 -33 -19 -23 -17 -17 -5 -26 -29 -51 -59 -90 -128 -157 -156 -214 -205 -182 -75 -54 -15 0 -4 -12 -17 -35
-2 -29 -53 -56 -34 -38 -38 -23 -19 -30 -31 -25 -32 -27 -22 -35 -49 -107 -122 -124 -161 -121 -131 -67 -11 -19 -9 -29 -27 -32 -68 -102
-18 -1 -21 -55 -108 -126 -59 -6 -24 -6 -23 -1 0 -1 -1 -1 -8 -34 -81 -76 -60 -60 -83 -56 -37 -36 -56 -35 -22 -52 -29 -42
-7 -5 -41 -151 -177 -74 -60 -14 -25 -47 -31 -3 -21 -15 -4 0 -5 -19 -44 -75 -30 -51 -33 -30 -31 -39 -49 -50 -27 -45 -41 -45
-1 -49 -95 0 -141 -79 -62 -42 -30 -30 -37 -62 -81 -76 -133 -126 -120 -100 -33 -69 -66 -68 -52 -23 -7 -12 -49 -23 -17 -16 -13 -4
Wind_Speed
nan nan nan nan nan nan nan nan nan nan nan nan nan nan nan nan nan nan 30 15 23 21 21 21 25 28 23 20 19 17 16 18
nan nan nan nan nan nan nan 20 nan nan nan nan nan nan nan nan nan nan nan 18 20 25 21 24 27 28 26 23 23 19 15 18
nan nan nan nan nan nan nan nan nan nan nan nan 20 nan nan nan nan nan nan 19 18 18 20 25 28 29 29 26 24 21 14 14
nan nan nan nan nan nan nan nan nan 28 nan nan nan nan nan nan nan nan nan 28 19 19 26 25 28 30 34 26 24 18 12 13
nan nan nan nan nan nan nan nan 28 nan nan nan nan nan nan nan nan nan nan nan 24 21 28 27 27 26 30 26 22 18 15 14
nan nan nan nan nan nan nan nan nan nan nan nan nan nan nan nan nan nan nan 29 22 21 22 26 24 25 27 23 22 22 25 23
nan nan nan nan nan nan nan nan nan nan nan nan 17 16 nan nan nan nan nan 26 15 15 21 22 21 26 26 21 22 24 26 27
nan nan nan nan nan nan nan nan nan nan nan nan nan 21 nan nan nan nan nan nan 21 16 18 21 21 23 26 24 25 25 28 27
nan nan nan nan nan nan nan nan nan nan nan nan nan nan 23 nan nan nan nan nan 26 22 14 21 22 28 31 30 26 26 20 23
nan 14 14 nan nan nan nan nan nan nan nan nan nan nan nan nan nan 20 15 16 28 22 18 26 23 30 33 36 30 24 21 24
21 20 26 29 31 37 40 nan nan nan nan nan nan nan nan nan nan nan 26 11 32 22 24 30 27 34 38 39 33 30 30 27
22 22 16 20 47 32 38 33 nan nan nan nan nan nan nan nan nan 39 23 29 34 26 30 34 31 38 42 42 38 35 34 32
27 22 24 45 47 35 22 21 35 32 36 30 nan nan 32 39 27 31 23 36 39 32 35 35 36 38 38 41 39 40 41 39
21 20 16 43 34 28 40 39 25 18 17 38 nan nan 50 42 30 22 31 39 39 36 36 39 44 43 44 43 46 48 49 47
22 25 51 55 52 43 35 36 28 23 27 26 36 53 45 34 30 33 36 39 44 42 39 36 33 36 45 51 52 51 52 52
40 48 55 56 53 33 34 34 28 37 32 31 34 37 31 31 30 38 44 51 50 45 48 47 43 43 44 44 51 56 55 55
66 65 65 63 51 43 37 43 45 51 52 39 41 42 44 42 43 45 50 53 47 47 49 50 49 50 50 48 47 53 56 55
45 54 63 56 48 37 40 47 46 49 45 49 49 49 51 48 46 43 41 46 50 51 51 54 55 53 51 51 48 52 54 55
46 48 nan nan nan nan nan nan nan nan nan 43 nan 40 44 47 50 47 49 54 54 54 53 53 53 55 50 53 54 51 53 55
Wind_Direction
nan nan nan nan nan nan nan nan nan nan nan nan nan nan nan nan nan nan 287 303 325 346 343 347 348 343 333 317 317 311 310 295
nan nan nan nan nan nan nan 200 nan nan nan nan nan nan nan nan nan nan nan 287 306 327 334 341 345 341 344 332 317 313 304 295
nan nan nan nan nan nan nan nan nan nan nan nan 275 nan nan nan nan nan nan 287 307 322 338 333 330 334 341 334 326 319 309 297
nan nan nan nan nan nan nan nan nan 200 nan nan nan nan nan nan nan nan nan 302 290 305 315 324 330 333 329 327 335 325 297 285
nan nan nan nan nan nan nan nan 235 nan nan nan nan nan nan nan nan nan nan nan 279 279 297 312 323 329 330 328 340 332 320 326
nan nan nan nan nan nan nan nan nan nan nan nan nan nan nan nan nan nan nan 240 249 278 282 291 305 314 322 326 329 332 329 336
nan nan nan nan nan nan nan nan nan nan nan nan 224 232 nan nan nan nan nan 256 251 258 263 280 288 297 310 317 311 317 322 332
nan nan nan nan nan nan nan nan nan nan nan nan nan 184 nan nan nan nan nan nan 262 257 265 269 278 292 303 307 306 309 322 332
nan nan nan nan nan nan nan nan nan nan nan nan nan nan 233 nan nan nan nan nan 263 269 264 261 275 283 293 300 299 300 315 323
nan 225 218 nan nan nan nan nan nan nan nan nan nan nan nan nan nan 258 246 215 262 259 266 260 272 284 286 293 296 302 288 313
196 219 222 208 204 213 207 nan nan nan nan nan nan nan nan nan nan nan 265 229 254 253 268 265 263 274 280 289 290 292 286 302
222 191 204 239 241 219 225 219 nan nan nan nan nan nan nan nan nan 240 236 221 244 254 262 262 264 278 280 285 291 294 297 302
209 203 203 231 244 242 225 230 214 215 192 181 nan nan 227 222 235 233 228 232 240 249 256 259 261 272 277 283 288 289 289 295
224 212 206 234 246 246 227 220 218 216 204 191 nan nan 232 232 226 217 223 236 246 247 254 256 258 265 268 273 275 280 285 291
219 244 235 233 238 232 228 228 231 218 213 200 209 236 243 241 231 232 223 236 238 243 254 252 254 261 265 266 268 273 279 285
232 237 235 234 242 246 239 234 238 240 221 232 245 244 245 246 243 235 230 233 237 244 249 250 254 258 264 268 270 270 270 272
225 233 236 235 239 247 237 238 241 238 215 230 237 237 235 231 230 229 229 232 238 241 246 249 253 256 261 263 267 272 277 274
219 239 238 241 247 252 247 239 240 238 223 222 226 228 224 230 231 229 232 233 236 241 242 247 252 256 257 263 272 272 275 285
230 238 nan nan nan nan nan nan nan nan nan 229 nan 230 234 232 226 223 230 229 234 237 242 246 251 253 258 261 266 278 280 280